sat.trackr.live / text

‹ back to catalog

STARLINK-30816

NORAD 58162 · 2023-166N

PAYLOAD ACTIVE UNKNOWN

§ Identity

Operator
Country
US
Launch date
2023-10-29
Launch site
AFWTR
Launch vehicle
Mass (kg)
RCS (m²)

Purposes: comms

External: N2YO · Heavens-Above · Gunter

§ Orbital elements

Epoch: 2026-05-25T04:42:02.062080Z

Period
94.11 min
Inclination
53.1602°
Eccentricity
0.0001010
Mean motion
15.30195693 rev/d
Perigee alt
474.5 km
Apogee alt
475.9 km
Semi-major
6,853.4 km
B*
7.4357e-6
RAAN
224.1846°
Arg perigee
98.2647°
Mean anomaly
261.8468°
Rev number
14,489

§ Raw data

STARLINK-308161 58162U 23166N   26145.19585720 -.00000139  00000+0  74357-5 0  99992 58162  53.1602 224.1846 0001010  98.2647 261.8468 15.30195693144899

JSON: /api/v1/satellites/58162 · /tle

For live sub-satellite position, see the globe view (requires WebGL).

§ Visibility from observer

Set your observer location to see the next 7 days of passes ≥ 10°. The values pass through the URL so the page stays shareable.

No JS? Fill the form by hand. The geolocation button needs JavaScript.